#timestamp,LO_Frequency,Hit,StdDev 
1653897615.6,286047000.6,P
1653897635.5,286047000.1,N
1653897655.3,286047001.9,P
1653897675.1,286047001.5,N
1653897695.9,286047002.1,Y
1653897715.7,286047002.8,P
1653897735.6,286047002.7,N
1653897755.4,286047001.1,N
1653897775.2,286046998.4,N
1653897795.1,286046998.2,N
1653897796.0,286046998.2,N
1653897815.8,286046999.3,N
1653897835.6,286046999.0,N
1653897855.5,286046998.8,N
1653897875.3,286046999.3,N
1653897895.2,286046998.3,N
1653897915.9,286046998.4,N
1653897935.7,286046999.3,N
1653897955.6,286046996.7,N
1653897975.4,286046999.0,N
1653897995.2,286046996.5,N
1653898015.1,286046996.5,N
1653898016.0,286046996.5,N
1653898035.8,286046996.8,N
1653898055.7,286046997.0,N
1653898075.5,286046997.1,N
1653898095.3,286046999.0,N
1653898115.2,286046998.9,N
1653898135.0,286046998.8,N
1653898135.9,286046998.8,N
1653898155.7,286046998.7,N
1653898175.6,286046999.2,N
1653898195.4,286046998.9,N
1653898215.3,286046998.4,N
1653898235.1,286046998.1,N
1653898236.0,286046998.1,N
1653898255.8,286046998.4,N
1653898275.7,286046998.1,N
1653898295.5,286046998.1,N
1653898315.3,286046998.2,N
1653898335.2,286047001.0,N
1653898355.0,286047000.7,N
1653898355.9,286047000.7,N
1653898375.8,286046998.7,N
1653898395.6,286046998.9,N
1653898415.4,286046998.1,N
1653898435.3,286046998.6,N
1653898455.1,286046998.3,N
1653898475.9,286046998.8,N
1653898495.7,286046999.3,N
1653898515.5,286046999.3,N
1653898535.4,286046999.2,N
1653898555.2,286046999.3,N
1653898575.0,286046999.2,N
1653898575.9,286046999.2,N
1653898595.8,286046999.2,N
1653898615.6,286046996.5,Y
1653898635.5,286046998.3,P
1653898655.3,286046998.6,P
1653898675.1,286046998.2,P
1653898695.9,286046998.2,Y
1653898715.7,286047000.9,P
1653898735.5,286047000.9,N
1653898755.4,286047000.7,N
1653898775.2,286046998.7,N
1653898795.1,286047001.1,N
1653898796.0,286047001.1,N
1653898815.8,286046999.3,N
1653898835.6,286046999.6,N
1653898855.5,286046998.6,N
1653898875.3,286046998.2,N
1653898895.1,286047000.5,N
1653898915.9,286047000.9,N
1653898935.7,286047000.4,N
1653898955.6,286047000.5,N
1653898975.4,286047000.0,N
1653898995.2,286047000.0,N
1653899015.1,286047000.5,N
1653899016.0,286047000.5,N
1653899035.8,286047001.2,N
1653899055.7,286046998.4,N
1653899075.5,286046999.4,N
1653899095.3,286046998.8,N
1653899115.2,286047001.0,N
1653899135.0,286047000.9,N
1653899135.9,286047000.9,N
1653899155.8,286047000.0,N
1653899175.6,286047000.3,N
1653899195.4,286047000.8,N
1653899215.3,286047000.3,N
1653899235.1,286047000.6,N
1653899255.8,286046999.9,N
1653899275.7,286047000.3,N
1653899295.5,286047001.1,N
1653899315.4,286046998.2,N
1653899335.2,286046998.2,N
1653899355.0,286047000.7,N
1653899355.9,286047000.7,N
1653899375.8,286047000.6,N
1653899395.6,286047000.3,N
1653899415.5,286047000.4,N
1653899435.3,286047000.0,N
1653899455.1,286046999.9,N
1653899475.9,286046999.8,N
1653899495.7,286047000.1,N
1653899515.6,286046999.8,N
1653899535.4,286046999.7,N
1653899555.2,286047001.0,N
1653899575.1,286047002.1,N
1653899576.0,286047002.1,N
1653899595.9,286046999.7,N
1653899615.7,286047000.7,N
1653899635.5,286047001.2,N
1653899655.4,286046999.8,N
1653899675.2,286047000.2,N
1653899695.0,286047000.2,N
1653899695.9,286047000.2,N
1653899715.8,286046999.8,N
1653899735.6,286047000.8,N
1653899755.5,286046998.1,N
1653899775.3,286046998.4,N
1653899795.1,286046998.4,N
1653899815.9,286046998.8,N
1653899835.7,286046998.9,N
1653899855.6,286046999.2,N
1653899875.4,286046999.5,N
1653899895.2,286047001.2,N
1653899915.1,286047000.6,N
1653899916.0,286047000.6,N
1653899935.8,286046998.1,N
1653899955.7,286046998.3,N
1653899975.5,286047000.9,N
1653899995.3,286047000.7,N
1653900015.2,286047000.1,N
1653900035.0,286047002.8,N
1653900035.9,286047002.8,N
1653900055.8,286047000.2,N
1653900075.6,286047002.7,N
1653900095.4,286047000.2,N
1653900115.3,286047000.2,N
1653900135.1,286046999.8,N
1653900155.8,286046999.7,N
1653900175.7,286047001.9,N
1653900195.5,286047002.5,N
1653900215.4,286047001.9,N
1653900235.2,286047002.1,N
1653900255.0,286047002.0,N
1653900255.9,286047002.0,N
1653900275.8,286047001.4,N
1653900295.6,286047003.7,N
1653900315.5,286047003.6,N
1653900335.3,286047004.3,N
1653900355.1,286047003.8,N
1653900375.9,286047002.1,N
1653900395.7,286047001.4,N
1653900415.6,286047001.3,N
1653900435.4,286047001.7,N
1653900455.2,286047002.7,N
1653900475.1,286047002.5,N
1653900476.0,286047002.5,N
1653900495.8,286047001.9,N
1653900515.7,286047003.6,N
1653900535.5,286047002.5,N
1653900555.3,286047002.8,N
1653900575.2,286047000.3,N
1653900595.0,286047001.0,N
1653900595.9,286047001.0,N
1653900615.7,286046999.9,N
1653900635.6,286047000.9,N
1653900655.4,286046999.3,N
1653900675.3,286046999.6,N
1653900695.1,286046996.5,N
1653900696.0,286046996.5,N
1653900715.8,286046999.6,N
1653900735.7,286046999.0,N
1653900755.5,286047000.8,N
1653900775.3,286047000.8,N
1653900795.2,286046998.1,N
1653900815.0,286047001.1,N
1653900815.9,286047001.1,N
1653900835.8,286047001.1,N
1653900855.6,286047000.9,N
1653900875.4,286046999.7,N
1653900895.3,286047000.1,N
1653900915.1,286047000.1,N
1653900935.9,286047000.3,N
1653900955.7,286047000.5,N
1653900975.5,286046999.7,N
1653900995.4,286046999.8,N
1653901015.2,286047000.9,N
1653901035.0,286046998.5,N
1653901035.9,286046998.5,N
1653901055.8,286046998.6,N
1653901075.6,286046998.2,N
1653901095.5,286046998.5,N
1653901115.3,286046999.1,N
1653901135.1,286046996.9,N
1653901155.9,286046999.2,N
1653901175.7,286047000.8,N
1653901195.5,286047001.0,N
